TCA7952 SPJC-SLLP

Flight info

Callsign TCA7952
Flight time 1h 26m
Altitude 37000
Route KULIS UM415 JUL UM657 ELAKO
Aircraft A321/M-SDE3FGHIRWY/LB1

Departure

Time 2026-04-26 14:01
Airport Jorge Chávez International Airport (SPJC)

Arrival

Time 2026-04-26 15:27
Airport El Alto International Airport (SLLP)
Time Latitude Longitude Altitude Speed Heading
2026-04-26 13:37 -12.02402 -77.10903 120 ft 0 kts 64°
2026-04-26 13:47 -12.02408 -77.10917 120 ft 2 kts 56°
2026-04-26 13:48 -12.02415 -77.10930 120 ft 2 kts 68°
2026-04-26 13:48 -12.02421 -77.10944 120 ft 2 kts 63°
2026-04-26 13:48 -12.02428 -77.10958 120 ft 2 kts 65°
2026-04-26 13:48 -12.02435 -77.10973 120 ft 2 kts 64°
2026-04-26 13:49 -12.02440 -77.10983 120 ft 0 kts 63°
2026-04-26 13:49 -12.02447 -77.10994 120 ft 2 kts 38°
2026-04-26 13:49 -12.02460 -77.11001 120 ft 2 kts
2026-04-26 13:49 -12.02474 -77.11000 120 ft 0 kts 340°
2026-04-26 13:50 -12.02480 -77.10997 120 ft 1 kts 334°
2026-04-26 13:50 -12.02482 -77.10996 120 ft 0 kts 335°
2026-04-26 13:53 -12.02478 -77.10998 120 ft 1 kts 335°
2026-04-26 13:53 -12.02462 -77.11005 120 ft 3 kts 335°
2026-04-26 13:54 -12.02433 -77.11020 120 ft 5 kts 335°
2026-04-26 13:54 -12.02387 -77.11041 120 ft 8 kts 335°
2026-04-26 13:54 -12.02325 -77.11071 120 ft 11 kts 335°
2026-04-26 13:55 -12.02148 -77.11114 120 ft 14 kts 342°
2026-04-26 13:55 -12.02083 -77.11144 120 ft 15 kts 333°
2026-04-26 13:55 -12.01893 -77.11324 120 ft 15 kts 299°
2026-04-26 13:56 -12.01818 -77.11402 120 ft 16 kts 328°
2026-04-26 13:56 -12.01711 -77.11455 120 ft 17 kts 336°
2026-04-26 13:56 -12.01598 -77.11511 120 ft 18 kts 333°
2026-04-26 13:56 -12.01477 -77.11571 120 ft 19 kts 334°
2026-04-26 13:57 -12.01350 -77.11634 120 ft 20 kts 334°
2026-04-26 13:57 -12.01217 -77.11699 120 ft 21 kts 334°
2026-04-26 13:57 -12.01081 -77.11767 120 ft 21 kts 334°
2026-04-26 13:57 -12.00943 -77.11835 120 ft 22 kts 334°
2026-04-26 13:58 -12.00822 -77.11896 120 ft 18 kts 334°
2026-04-26 13:58 -12.00742 -77.11935 120 ft 0 kts 336°
2026-04-26 13:58 -12.00730 -77.11941 120 ft 3 kts 333°
2026-04-26 13:58 -12.00700 -77.11957 120 ft 6 kts 332°
2026-04-26 13:59 -12.00673 -77.11988 120 ft 4 kts 279°
2026-04-26 13:59 -12.00671 -77.12031 120 ft 7 kts 256°
2026-04-26 13:59 -12.00682 -77.12053 120 ft 1 kts 237°
2026-04-26 14:00 -12.00785 -77.12102 120 ft 9 kts 180°
2026-04-26 14:00 -12.00843 -77.12090 120 ft 0 kts 158°
2026-04-26 14:00 -12.00858 -77.12084 120 ft 8 kts 157°
2026-04-26 14:01 -12.01122 -77.11957 120 ft 80 kts 154°
2026-04-26 14:01 -12.01932 -77.11554 132 ft 168 kts 153°
2026-04-26 14:01 -12.03008 -77.11000 1034 ft 176 kts 154°
2026-04-26 14:01 -12.04026 -77.10358 2104 ft 169 kts 140°
2026-04-26 14:02 -12.04823 -77.09525 2678 ft 168 kts 127°
2026-04-26 14:02 -12.05492 -77.08468 3067 ft 180 kts 120°
2026-04-26 14:02 -12.06152 -77.07325 3436 ft 195 kts 120°
2026-04-26 14:02 -12.06897 -77.06083 3820 ft 211 kts 121°
2026-04-26 14:03 -12.07726 -77.04771 4196 ft 229 kts 122°
2026-04-26 14:03 -12.08655 -77.03339 4614 ft 248 kts 123°
2026-04-26 14:03 -12.09667 -77.01805 5090 ft 266 kts 124°
2026-04-26 14:03 -12.10766 -77.00158 5599 ft 282 kts 124°
2026-04-26 14:04 -12.11903 -76.98463 6368 ft 288 kts 124°
2026-04-26 14:04 -12.13063 -76.96739 7221 ft 290 kts 124°
2026-04-26 14:04 -12.14222 -76.95018 8024 ft 293 kts 125°
2026-04-26 14:04 -12.15403 -76.93267 8818 ft 296 kts 125°
2026-04-26 14:05 -12.16570 -76.91534 9583 ft 298 kts 126°
2026-04-26 14:05 -12.17775 -76.89748 10344 ft 301 kts 126°
2026-04-26 14:05 -12.18979 -76.87963 10791 ft 315 kts 126°
2026-04-26 14:05 -12.20281 -76.86036 11119 ft 333 kts 126°
2026-04-26 14:06 -12.21630 -76.84038 11508 ft 347 kts 126°
2026-04-26 14:06 -12.23020 -76.81977 12205 ft 351 kts 126°
2026-04-26 14:06 -12.24402 -76.79925 12948 ft 353 kts 126°
2026-04-26 14:06 -12.25817 -76.77824 13622 ft 357 kts 126°
2026-04-26 14:07 -12.27220 -76.75738 14257 ft 361 kts 126°
2026-04-26 14:07 -12.28698 -76.73544 14906 ft 365 kts 126°
2026-04-26 14:07 -12.30145 -76.71394 15519 ft 369 kts 126°
2026-04-26 14:07 -12.31635 -76.69183 16141 ft 373 kts 126°
2026-04-26 14:08 -12.33107 -76.66995 16731 ft 376 kts 126°
2026-04-26 14:08 -12.34598 -76.64780 17307 ft 380 kts 127°
2026-04-26 14:08 -12.36127 -76.62508 17879 ft 383 kts 127°
2026-04-26 14:08 -12.37658 -76.60232 18432 ft 387 kts 127°
2026-04-26 14:09 -12.39203 -76.57935 18973 ft 390 kts 127°
2026-04-26 14:09 -12.40771 -76.55604 19499 ft 394 kts 127°
2026-04-26 14:09 -12.42370 -76.53224 20019 ft 397 kts 126°
2026-04-26 14:09 -12.43941 -76.50887 20524 ft 400 kts 126°
2026-04-26 14:10 -12.45544 -76.48501 21013 ft 404 kts 126°
2026-04-26 14:10 -12.47172 -76.46077 21486 ft 407 kts 126°
2026-04-26 14:10 -12.48811 -76.43638 21952 ft 410 kts 126°
2026-04-26 14:10 -12.50432 -76.41223 22407 ft 414 kts 126°
2026-04-26 14:11 -12.53762 -76.36259 23308 ft 419 kts 126°
2026-04-26 14:11 -12.55438 -76.33759 23723 ft 423 kts 126°
2026-04-26 14:11 -12.57148 -76.31194 24130 ft 426 kts 126°
2026-04-26 14:12 -12.58845 -76.28650 24542 ft 428 kts 125°
2026-04-26 14:12 -12.60554 -76.26091 24932 ft 431 kts 125°
2026-04-26 14:12 -12.62258 -76.23541 25313 ft 434 kts 125°
2026-04-26 14:12 -12.63982 -76.20963 25698 ft 437 kts 125°
2026-04-26 14:13 -12.67475 -76.15743 26452 ft 442 kts 125°
2026-04-26 14:13 -12.69235 -76.13111 26812 ft 445 kts 125°
2026-04-26 14:13 -12.71016 -76.10451 27177 ft 447 kts 124°
2026-04-26 14:14 -12.72781 -76.07812 27528 ft 449 kts 124°
2026-04-26 14:14 -12.74575 -76.05128 27873 ft 451 kts 124°
2026-04-26 14:14 -12.76379 -76.02428 28207 ft 454 kts 124°
2026-04-26 14:14 -12.78176 -75.99738 28530 ft 456 kts 124°
2026-04-26 14:15 -12.79988 -75.97027 28847 ft 458 kts 124°
2026-04-26 14:15 -12.81820 -75.94282 29151 ft 460 kts 124°
2026-04-26 14:15 -12.83663 -75.91522 29437 ft 463 kts 124°
2026-04-26 14:15 -12.85495 -75.88776 29715 ft 465 kts 123°
2026-04-26 14:16 -12.87313 -75.86051 29995 ft 467 kts 123°
2026-04-26 14:16 -12.89174 -75.83261 30282 ft 469 kts 123°
2026-04-26 14:16 -12.91017 -75.80495 30553 ft 471 kts 123°
2026-04-26 14:16 -12.92864 -75.77724 30817 ft 473 kts 123°
2026-04-26 14:17 -12.94717 -75.74940 31079 ft 475 kts 123°
2026-04-26 14:17 -12.96611 -75.72098 31342 ft 477 kts 123°
2026-04-26 14:17 -12.98487 -75.69280 31584 ft 479 kts 123°
2026-04-26 14:17 -13.00377 -75.66441 31800 ft 482 kts 123°
2026-04-26 14:18 -13.02299 -75.63554 32027 ft 484 kts 123°
2026-04-26 14:18 -13.04216 -75.60672 32247 ft 486 kts 123°
2026-04-26 14:18 -13.06144 -75.57773 32473 ft 489 kts 123°
2026-04-26 14:18 -13.08087 -75.54848 32738 ft 490 kts 123°
2026-04-26 14:19 -13.09999 -75.51972 33007 ft 490 kts 123°
2026-04-26 14:19 -13.11946 -75.49055 33245 ft 492 kts 123°
2026-04-26 14:19 -13.13883 -75.46163 33471 ft 493 kts 123°
2026-04-26 14:19 -13.15819 -75.43268 33724 ft 493 kts 123°
2026-04-26 14:20 -13.17752 -75.40369 33992 ft 493 kts 123°
2026-04-26 14:20 -13.19724 -75.37406 34263 ft 493 kts 123°
2026-04-26 14:20 -13.21658 -75.34494 34532 ft 492 kts 123°
2026-04-26 14:20 -13.23582 -75.31581 34778 ft 492 kts 122°
2026-04-26 14:21 -13.25491 -75.28685 35014 ft 492 kts 122°
2026-04-26 14:21 -13.27449 -75.25720 35256 ft 491 kts 123°
2026-04-26 14:21 -13.29373 -75.22810 35494 ft 491 kts 123°
2026-04-26 14:21 -13.31282 -75.19925 35721 ft 490 kts 123°
2026-04-26 14:22 -13.33193 -75.17039 35944 ft 489 kts 123°
2026-04-26 14:22 -13.35130 -75.14114 36164 ft 489 kts 123°
2026-04-26 14:22 -13.37053 -75.11211 36380 ft 488 kts 122°
2026-04-26 14:22 -13.38944 -75.08353 36583 ft 488 kts 122°
2026-04-26 14:23 -13.40876 -75.05433 36764 ft 488 kts 122°
2026-04-26 14:23 -13.42778 -75.02557 36929 ft 488 kts 122°
2026-04-26 14:23 -13.44710 -74.99633 37089 ft 488 kts 122°
2026-04-26 14:23 -13.46551 -74.96720 37237 ft 487 kts 119°
2026-04-26 14:24 -13.48224 -74.93693 37382 ft 486 kts 115°
2026-04-26 14:24 -13.51081 -74.87360 37431 ft 485 kts 110°
2026-04-26 14:25 -13.53764 -74.80990 37436 ft 485 kts 110°
2026-04-26 14:25 -13.56479 -74.74587 37437 ft 485 kts 110°
2026-04-26 14:26 -13.59194 -74.68220 37437 ft 485 kts 110°
2026-04-26 14:26 -13.61918 -74.61837 37437 ft 485 kts 110°
2026-04-26 14:27 -13.64624 -74.55492 37437 ft 485 kts 110°
2026-04-26 14:27 -13.67338 -74.49126 37437 ft 485 kts 110°
2026-04-26 14:28 -13.70065 -74.42724 37437 ft 485 kts 110°
2026-04-26 14:28 -13.72775 -74.36353 37437 ft 485 kts 110°
2026-04-26 14:29 -13.75503 -74.29909 37436 ft 485 kts 110°
2026-04-26 14:29 -13.78213 -74.23497 37437 ft 485 kts 110°
2026-04-26 14:30 -13.80908 -74.17134 37437 ft 485 kts 110°
2026-04-26 14:30 -13.83616 -74.10744 37441 ft 486 kts 110°
2026-04-26 14:31 -13.86304 -74.04398 37460 ft 486 kts 110°
2026-04-26 14:31 -13.89019 -73.97982 37490 ft 486 kts 110°
2026-04-26 14:32 -13.91730 -73.91570 37526 ft 485 kts 110°
2026-04-26 14:32 -13.94444 -73.85149 37554 ft 485 kts 110°
2026-04-26 14:33 -13.97154 -73.78729 37566 ft 485 kts 110°
2026-04-26 14:33 -13.99866 -73.72301 37570 ft 485 kts 110°
2026-04-26 14:34 -14.02567 -73.65896 37571 ft 485 kts 110°
2026-04-26 14:34 -14.05267 -73.59490 37571 ft 485 kts 110°
2026-04-26 14:35 -14.07986 -73.53032 37571 ft 485 kts 110°
2026-04-26 14:35 -14.10677 -73.46616 37568 ft 485 kts 110°
2026-04-26 14:36 -14.13396 -73.40199 37571 ft 486 kts 110°
2026-04-26 14:36 -14.16112 -73.33763 37569 ft 485 kts 110°
2026-04-26 14:37 -14.18781 -73.27380 37571 ft 485 kts 110°
2026-04-26 14:37 -14.21454 -73.20987 37571 ft 485 kts 110°
2026-04-26 14:38 -14.24120 -73.14616 37572 ft 483 kts 109°
2026-04-26 14:38 -14.26790 -73.08231 37572 ft 481 kts 109°
2026-04-26 14:39 -14.29442 -73.01882 37572 ft 478 kts 109°
2026-04-26 14:39 -14.32074 -72.95577 37572 ft 476 kts 109°
2026-04-26 14:40 -14.34699 -72.89281 37571 ft 475 kts 109°
2026-04-26 14:40 -14.37318 -72.82993 37571 ft 475 kts 109°
2026-04-26 14:41 -14.39934 -72.76708 37571 ft 475 kts 109°
2026-04-26 14:41 -14.42557 -72.70402 37571 ft 475 kts 109°
2026-04-26 14:42 -14.45172 -72.64109 37570 ft 475 kts 109°
2026-04-26 14:42 -14.47808 -72.57762 37565 ft 475 kts 109°
2026-04-26 14:43 -14.50424 -72.51458 37559 ft 475 kts 109°
2026-04-26 14:43 -14.53018 -72.45199 37553 ft 475 kts 109°
2026-04-26 14:44 -14.55631 -72.38890 37549 ft 475 kts 109°
2026-04-26 14:44 -14.58235 -72.32591 37546 ft 475 kts 109°
2026-04-26 14:45 -14.60812 -72.26334 37546 ft 475 kts 109°
2026-04-26 14:45 -14.63408 -72.20040 37546 ft 475 kts 109°
2026-04-26 14:46 -14.66003 -72.13751 37546 ft 475 kts 109°
2026-04-26 14:46 -14.68614 -72.07420 37546 ft 475 kts 109°
2026-04-26 14:47 -14.71203 -72.01138 37546 ft 475 kts 109°
2026-04-26 14:47 -14.73773 -71.94900 37546 ft 475 kts 109°
2026-04-26 14:48 -14.76374 -71.88583 37546 ft 475 kts 109°
2026-04-26 14:48 -14.78985 -71.82230 37546 ft 475 kts 109°
2026-04-26 14:49 -14.81582 -71.75891 37546 ft 475 kts 109°
2026-04-26 14:49 -14.84165 -71.69576 37546 ft 475 kts 109°
2026-04-26 14:50 -14.86757 -71.63245 37546 ft 475 kts 109°
2026-04-26 14:50 -14.89344 -71.56923 37545 ft 476 kts 109°
2026-04-26 14:51 -14.91939 -71.50574 37531 ft 478 kts 109°
2026-04-26 14:51 -14.94546 -71.44193 37515 ft 481 kts 109°
2026-04-26 14:52 -14.97181 -71.37736 37516 ft 484 kts 109°
2026-04-26 14:52 -14.99810 -71.31282 37536 ft 487 kts 108°
2026-04-26 14:53 -15.02439 -71.24810 37573 ft 489 kts 108°
2026-04-26 14:53 -15.05091 -71.18291 37603 ft 492 kts 109°
2026-04-26 14:54 -15.07770 -71.11710 37617 ft 492 kts 108°
2026-04-26 14:54 -15.10462 -71.05093 37619 ft 492 kts 109°
2026-04-26 14:55 -15.13150 -70.98514 37624 ft 492 kts 109°
2026-04-26 14:55 -15.15799 -70.91982 37625 ft 491 kts 109°
2026-04-26 14:55 -15.17123 -70.88711 37422 ft 490 kts 110°
2026-04-26 14:56 -15.18441 -70.85461 37178 ft 486 kts 110°
2026-04-26 14:56 -15.19751 -70.82227 36936 ft 483 kts 110°
2026-04-26 14:56 -15.21054 -70.79012 36692 ft 479 kts 110°
2026-04-26 14:56 -15.22358 -70.75795 36445 ft 477 kts 110°
2026-04-26 14:57 -15.23672 -70.72551 36197 ft 476 kts 110°
2026-04-26 14:57 -15.24965 -70.69353 35953 ft 477 kts 110°
2026-04-26 14:57 -15.26248 -70.66178 35716 ft 477 kts 110°
2026-04-26 14:57 -15.27540 -70.62974 35476 ft 478 kts 110°
2026-04-26 14:58 -15.28840 -70.59753 35232 ft 479 kts 110°
2026-04-26 14:58 -15.30142 -70.56522 34987 ft 479 kts 110°
2026-04-26 14:58 -15.31438 -70.53305 34742 ft 480 kts 110°
2026-04-26 14:58 -15.32741 -70.50068 34495 ft 481 kts 110°
2026-04-26 14:59 -15.34020 -70.46892 34251 ft 481 kts 110°
2026-04-26 14:59 -15.35321 -70.43658 34004 ft 482 kts 110°
2026-04-26 14:59 -15.36625 -70.40415 33759 ft 482 kts 110°
2026-04-26 14:59 -15.37494 -70.38255 33592 ft 482 kts 110°
2026-04-26 15:00 -15.39235 -70.33923 33258 ft 482 kts 110°
2026-04-26 15:00 -15.40531 -70.30685 33013 ft 482 kts 110°
2026-04-26 15:00 -15.41809 -70.27487 32768 ft 481 kts 109°
2026-04-26 15:00 -15.43101 -70.24260 32522 ft 481 kts 109°
2026-04-26 15:01 -15.44401 -70.21014 32274 ft 480 kts 109°
2026-04-26 15:01 -15.45709 -70.17751 32018 ft 478 kts 110°
2026-04-26 15:01 -15.47076 -70.14629 31773 ft 477 kts 114°
2026-04-26 15:01 -15.48633 -70.11591 31529 ft 476 kts 116°
2026-04-26 15:02 -15.50260 -70.08593 31281 ft 474 kts 117°
2026-04-26 15:02 -15.51920 -70.05573 31029 ft 471 kts 117°
2026-04-26 15:02 -15.53542 -70.02621 30781 ft 469 kts 117°
2026-04-26 15:02 -15.55162 -69.99663 30533 ft 466 kts 116°
2026-04-26 15:03 -15.56760 -69.96738 30286 ft 464 kts 116°
2026-04-26 15:03 -15.58353 -69.93815 30037 ft 461 kts 116°
2026-04-26 15:03 -15.59939 -69.90897 29787 ft 460 kts 116°
2026-04-26 15:03 -15.61534 -69.87959 29539 ft 458 kts 116°
2026-04-26 15:04 -15.63099 -69.85077 29297 ft 457 kts 116°
2026-04-26 15:04 -15.64679 -69.82166 29050 ft 456 kts 116°
2026-04-26 15:04 -15.66221 -69.79326 28805 ft 453 kts 116°
2026-04-26 15:04 -15.67767 -69.76476 28561 ft 451 kts 116°
2026-04-26 15:05 -15.69324 -69.73608 28314 ft 450 kts 116°
2026-04-26 15:05 -15.70357 -69.71703 28152 ft 449 kts 116°
2026-04-26 15:05 -15.72427 -69.67885 27818 ft 446 kts 116°
2026-04-26 15:05 -15.73966 -69.65046 27573 ft 443 kts 116°
2026-04-26 15:06 -15.75497 -69.62221 27332 ft 441 kts 115°
2026-04-26 15:06 -15.77011 -69.59423 27090 ft 440 kts 115°
2026-04-26 15:06 -15.78522 -69.56632 26847 ft 438 kts 115°
2026-04-26 15:06 -15.80014 -69.53873 26605 ft 436 kts 115°
2026-04-26 15:07 -15.82998 -69.48355 26111 ft 433 kts 115°
2026-04-26 15:07 -15.84502 -69.45571 25863 ft 431 kts 115°
2026-04-26 15:07 -15.85969 -69.42861 25619 ft 422 kts 115°
2026-04-26 15:08 -15.87405 -69.40205 25377 ft 412 kts 115°
2026-04-26 15:08 -15.88800 -69.37623 25138 ft 403 kts 115°
2026-04-26 15:08 -15.90169 -69.35085 24895 ft 395 kts 115°
2026-04-26 15:08 -15.91519 -69.32575 24650 ft 387 kts 114°
2026-04-26 15:09 -15.92855 -69.30187 24411 ft 380 kts 117°
2026-04-26 15:09 -15.94271 -69.27880 24170 ft 373 kts 118°
2026-04-26 15:09 -15.95689 -69.25636 23929 ft 366 kts 118°
2026-04-26 15:09 -15.97084 -69.23435 23683 ft 357 kts 118°
2026-04-26 15:10 -15.98437 -69.21310 23432 ft 339 kts 118°
2026-04-26 15:10 -15.99286 -69.19974 23270 ft 329 kts 118°
2026-04-26 15:10 -16.00934 -69.17374 22936 ft 309 kts 118°
2026-04-26 15:10 -16.02111 -69.15523 22697 ft 303 kts 117°
2026-04-26 15:11 -16.03288 -69.13660 22465 ft 304 kts 117°
2026-04-26 15:11 -16.04453 -69.11813 22235 ft 314 kts 118°
2026-04-26 15:11 -16.05680 -69.09865 21983 ft 316 kts 118°
2026-04-26 15:11 -16.06901 -69.07939 21736 ft 311 kts 118°
2026-04-26 15:12 -16.08085 -69.06073 21487 ft 306 kts 118°
2026-04-26 15:12 -16.09258 -69.04221 21236 ft 300 kts 119°
2026-04-26 15:12 -16.10418 -69.02390 20986 ft 295 kts 119°
2026-04-26 15:12 -16.11564 -69.00598 20767 ft 287 kts 119°
2026-04-26 15:13 -16.12648 -68.98903 20543 ft 276 kts 119°
2026-04-26 15:13 -16.13737 -68.97186 20298 ft 276 kts 119°
2026-04-26 15:13 -16.14803 -68.95500 20057 ft 275 kts 120°
2026-04-26 15:13 -16.15871 -68.93810 19810 ft 274 kts 120°
2026-04-26 15:14 -16.16934 -68.92129 19566 ft 273 kts 120°
2026-04-26 15:14 -16.17994 -68.90452 19321 ft 271 kts 120°
2026-04-26 15:14 -16.19040 -68.88796 19079 ft 270 kts 121°
2026-04-26 15:14 -16.20074 -68.87157 18840 ft 269 kts 121°
2026-04-26 15:15 -16.21109 -68.85517 18600 ft 268 kts 121°
2026-04-26 15:15 -16.22149 -68.83871 18352 ft 266 kts 121°
2026-04-26 15:15 -16.23173 -68.82249 18109 ft 265 kts 121°
2026-04-26 15:15 -16.24198 -68.80623 17867 ft 263 kts 121°
2026-04-26 15:16 -16.25217 -68.79006 17624 ft 262 kts 121°
2026-04-26 15:16 -16.26233 -68.77392 17378 ft 261 kts 121°
2026-04-26 15:16 -16.27232 -68.75806 17140 ft 260 kts 121°
2026-04-26 15:16 -16.28220 -68.74239 16902 ft 256 kts 121°
2026-04-26 15:17 -16.29182 -68.72714 16651 ft 246 kts 121°
2026-04-26 15:17 -16.29805 -68.71725 16480 ft 239 kts 121°
2026-04-26 15:17 -16.30984 -68.69854 16146 ft 226 kts 121°
2026-04-26 15:17 -16.31839 -68.68494 15904 ft 215 kts 121°
2026-04-26 15:18 -16.32643 -68.67216 15738 ft 206 kts 121°
2026-04-26 15:18 -16.33448 -68.65933 15750 ft 211 kts 121°
2026-04-26 15:18 -16.34252 -68.64652 15737 ft 210 kts 121°
2026-04-26 15:18 -16.35056 -68.63372 15734 ft 210 kts 121°
2026-04-26 15:19 -16.35863 -68.62088 15732 ft 210 kts 121°
2026-04-26 15:19 -16.36672 -68.60801 15732 ft 210 kts 121°
2026-04-26 15:19 -16.37483 -68.59508 15732 ft 210 kts 121°
2026-04-26 15:19 -16.38287 -68.58228 15732 ft 210 kts 121°
2026-04-26 15:20 -16.39092 -68.56946 15732 ft 210 kts 121°
2026-04-26 15:20 -16.39891 -68.55673 15732 ft 210 kts 121°
2026-04-26 15:20 -16.40705 -68.54378 15732 ft 210 kts 121°
2026-04-26 15:20 -16.41520 -68.53085 15732 ft 210 kts 121°
2026-04-26 15:21 -16.42328 -68.51800 15732 ft 210 kts 121°
2026-04-26 15:21 -16.43128 -68.50528 15732 ft 211 kts 121°
2026-04-26 15:21 -16.43951 -68.49214 15735 ft 213 kts 121°
2026-04-26 15:21 -16.44777 -68.47896 15733 ft 213 kts 121°
2026-04-26 15:22 -16.45588 -68.46601 15732 ft 213 kts 121°
2026-04-26 15:22 -16.46415 -68.45283 15731 ft 213 kts 121°
2026-04-26 15:22 -16.47227 -68.43990 15732 ft 213 kts 121°
2026-04-26 15:22 -16.48039 -68.42693 15736 ft 213 kts 121°
2026-04-26 15:23 -16.48858 -68.41387 15751 ft 212 kts 121°
2026-04-26 15:23 -16.49625 -68.40170 15722 ft 187 kts 121°
2026-04-26 15:23 -16.50306 -68.39058 15751 ft 180 kts 114°
2026-04-26 15:23 -16.50723 -68.37817 15762 ft 181 kts 95°
2026-04-26 15:24 -16.50806 -68.36497 15668 ft 179 kts 87°
2026-04-26 15:24 -16.50829 -68.35185 15522 ft 179 kts 88°
2026-04-26 15:24 -16.50856 -68.34014 15258 ft 180 kts 88°
2026-04-26 15:24 -16.50892 -68.32725 14962 ft 175 kts 88°
2026-04-26 15:25 -16.50930 -68.31435 14741 ft 176 kts 89°
2026-04-26 15:25 -16.50955 -68.30576 14581 ft 176 kts 89°
2026-04-26 15:25 -16.51010 -68.28864 14478 ft 175 kts 89°
2026-04-26 15:25 -16.51052 -68.27569 14405 ft 177 kts 89°
2026-04-26 15:26 -16.51093 -68.26286 14106 ft 174 kts 89°
2026-04-26 15:26 -16.51133 -68.25019 13879 ft 174 kts 89°
2026-04-26 15:26 -16.51171 -68.23748 13645 ft 173 kts 89°
2026-04-26 15:26 -16.51217 -68.22474 13418 ft 172 kts 91°
2026-04-26 15:27 -16.51267 -68.21224 13246 ft 170 kts 92°
2026-04-26 15:27 -16.51307 -68.20053 13219 ft 130 kts 92°
2026-04-26 15:27 -16.51327 -68.19413 13251 ft 46 kts 92°
2026-04-26 15:27 -16.51334 -68.19251 13259 ft 19 kts 92°
2026-04-26 15:28 -16.51338 -68.19087 13267 ft 26 kts 91°
2026-04-26 15:28 -16.51346 -68.18877 13277 ft 31 kts 91°
2026-04-26 15:28 -16.51351 -68.18632 13291 ft 32 kts 92°
2026-04-26 15:28 -16.51354 -68.18451 13303 ft 14 kts 85°
2026-04-26 15:29 -16.51341 -68.18368 13310 ft 9 kts 79°
2026-04-26 15:29 -16.51325 -68.18307 13315 ft 7 kts 70°
2026-04-26 15:29 -16.51307 -68.18259 13318 ft 1 kts 64°
2026-04-26 15:30 -16.51261 -68.18183 13325 ft 4 kts 53°
2026-04-26 15:30 -16.51237 -68.18151 13327 ft 8 kts 51°
2026-04-26 15:30 -16.51204 -68.18109 13331 ft 6 kts 48°
2026-04-26 15:31 -16.51176 -68.18078 13334 ft 5 kts 46°
2026-04-26 15:31 -16.51101 -68.17996 13343 ft 9 kts 46°
2026-04-26 15:31 -16.51051 -68.17941 13349 ft 11 kts 46°
2026-04-26 15:32 -16.50998 -68.17853 13358 ft 7 kts 78°
2026-04-26 15:32 -16.50955 -68.17821 13361 ft 2 kts
2026-04-26 15:32 -16.50946 -68.17821 13362 ft 0 kts